User: anonymous
Location: Meetinghouse Hill
(42.7686°N, 71.7752°W)
Time: 03:42:09
(UTC-04:00)
Language:

Iridium 34 - Orbit

View from above orbital plane
View from above orbital plane
View from above satellite
View from above satellite

Ground track
Ground track

The orbit data is extracted from the following two-line orbital elements,

1 24969U 97056E   14112.45990661  .00000481  00000-0  16484-3 0  7533
2 24969 086.3958 080.2176 0002222 101.3070 258.8376 14.34217477867454
Epoch (UTC): 22 April 2014 11:02:15
Eccentricity: 0.0002222
inclination: 86.3958°
perigee height: 776 km
apogee height: 779 km
right ascension of ascending node: 80.2176°
argument of perigee: 101.3070°
revolutions per day: 14.34217477
mean anomaly at epoch: 258.8376°
orbit number at epoch: 86745

The dashed part of the orbit path shows where the satellite is in the earth's shadow,  

DLR